Location: ??? ?????
(30.6482°N, 60.5850°E)
Time: 05:03:58
(UTC+00:00)

USA 234 - Pass Details

Date: 09 April 2020
Orbit: 1102 x 1106 km, 123.0° (Epoch: 14 May)

Event Time Altitude Azimuth Distance (km) Brightness Sun altitude
Rises 16:20:00 0° 41° (NE) 3,920 6.0 -24.9°
Reaches altitude 10° 16:22:29 10° 41° (NE) 2,961 5.4 -25.4°
Maximum altitude 16:29:03 89° 127° (SE) 1,106 3.1 -26.6°
Drops below altitude 10° 16:35:35 10° 222° (SW) 2,953 5.6 -27.9°
Sets 16:38:04 0° 223° (SW) 3,909 6.3 -28.3°
